Location: *
(18.5200°S, 46.4500°E)
Time: 07:20:00
(UTC+00:00)

Timation 2 Rocket - Pass Details

Date: 19 July 2019
Orbit: 906 x 1076 km, 70.0° (Epoch: 23 August)

Event Time Altitude Azimuth Distance (km) Brightness Sun altitude
Rises 15:00:48 0° 348° (NNW) 3,581 7.4 -6.5°
Reaches altitude 10° 15:03:21 10° 351° (N) 2,623 6.7 -7.1°
Maximum altitude 15:09:21 70° 73° (ENE) 969 3.9 -8.4°
Drops below altitude 10° 15:15:18 10° 156° (SSE) 2,601 5.8 -9.8°
Sets 15:17:49 0° 158° (SSE) 3,548 6.6 -10.3°
